Radiation Dose measured at Intake/Vertical shaft monitor
Date,Time,Intake(cps),Vertical shaft(cps),Rain
2024/03/08,00:00,4.8,4.7,No
2024/03/08,00:10,4.8,4.7,No
2024/03/08,00:20,5.0,4.7,No
2024/03/08,00:30,4.9,4.6,No
2024/03/08,00:40,4.9,4.7,No
2024/03/08,00:50,5.0,4.6,No
2024/03/08,01:00,4.9,4.6,No
2024/03/08,01:10,4.7,4.6,No
2024/03/08,01:20,4.9,4.6,Yes
2024/03/08,01:30,4.8,4.7,Yes
2024/03/08,01:40,4.9,4.6,Yes
2024/03/08,01:50,4.8,4.6,Yes
2024/03/08,02:00,4.9,4.7,Yes
2024/03/08,02:10,4.8,4.7,Yes
2024/03/08,02:20,4.8,4.5,Yes
2024/03/08,02:30,4.9,4.6,Yes
2024/03/08,02:40,5.0,4.6,Yes
2024/03/08,02:50,5.0,4.7,Yes
2024/03/08,03:00,5.0,4.6,Yes
2024/03/08,03:10,5.2,4.7,Yes
2024/03/08,03:20,5.1,4.9,Yes
2024/03/08,03:30,5.3,5.0,Yes
2024/03/08,03:40,5.3,5.0,Yes
2024/03/08,03:50,5.4,4.9,Yes
2024/03/08,04:00,5.6,5.0,Yes
2024/03/08,04:10,5.7,5.0,Yes
2024/03/08,04:20,5.8,5.1,Yes
2024/03/08,04:30,5.7,5.2,Yes
2024/03/08,04:40,5.5,5.1,Yes
2024/03/08,04:50,5.6,5.0,Yes
2024/03/08,05:00,5.5,5.2,Yes
2024/03/08,05:10,5.5,5.2,Yes
2024/03/08,05:20,5.8,5.1,Yes
2024/03/08,05:30,5.7,5.0,Yes
2024/03/08,05:40,5.7,5.1,Yes
2024/03/08,05:50,5.8,5.2,Yes
2024/03/08,06:00,5.8,5.2,Yes
2024/03/08,06:10,6.0,5.3,Yes
2024/03/08,06:20,6.0,5.4,Yes
2024/03/08,06:30,6.0,5.4,Yes
2024/03/08,06:40,6.0,5.4,Yes
2024/03/08,06:50,6.1,5.3,Yes
2024/03/08,07:00,6.1,5.4,Yes
2024/03/08,07:10,6.3,5.5,Yes
2024/03/08,07:20,6.4,5.5,Yes
2024/03/08,07:30,6.2,5.5,Yes
2024/03/08,07:40,6.3,5.4,Yes
2024/03/08,07:50,6.4,5.5,Yes
2024/03/08,08:00,6.5,5.6,Yes
2024/03/08,08:10,6.3,5.6,Yes
2024/03/08,08:20,6.2,5.6,Yes
2024/03/08,08:30,6.3,5.6,Yes
2024/03/08,08:40,6.2,5.4,Yes
2024/03/08,08:50,6.2,5.6,Yes
2024/03/08,09:00,6.6,5.5,Yes
2024/03/08,09:10,6.4,5.6,Yes
2024/03/08,09:20,6.1,5.4,Yes
2024/03/08,09:30,6.6,5.4,Yes
2024/03/08,09:40,6.3,5.3,Yes
2024/03/08,09:50,6.2,5.6,Yes
2024/03/08,10:00,6.2,5.4,Yes
2024/03/08,10:10,6.2,5.4,Yes
2024/03/08,10:20,5.7,5.3,Yes
2024/03/08,10:30,5.9,5.4,Yes
2024/03/08,10:40,5.9,5.3,Yes
2024/03/08,10:50,6.1,5.4,Yes
2024/03/08,11:00,5.8,5.4,Yes
2024/03/08,11:10,5.8,5.4,Yes
2024/03/08,11:20,5.8,5.2,Yes
2024/03/08,11:30,5.6,5.2,Yes
2024/03/08,11:40,5.5,5.1,Yes
2024/03/08,11:50,5.5,5.0,No
2024/03/08,12:00,5.3,5.1,No
2024/03/08,12:10,5.3,4.9,No
2024/03/08,12:20,5.2,4.8,No
2024/03/08,12:30,5.0,4.8,Yes
2024/03/08,12:40,5.1,4.8,Yes
2024/03/08,12:50,5.0,4.7,Yes
2024/03/08,13:00,4.9,4.7,No
2024/03/08,13:10,5.0,4.8,No
2024/03/08,13:20,4.9,4.7,No
2024/03/08,13:30,4.9,4.8,No
2024/03/08,13:40,5.1,4.8,No
2024/03/08,13:50,4.8,4.7,No
2024/03/08,14:00,5.0,4.8,No
2024/03/08,14:10,4.8,4.7,No
2024/03/08,14:20,5.0,4.7,No
2024/03/08,14:30,4.9,4.6,No
2024/03/08,14:40,4.7,4.8,No
2024/03/08,14:50,4.9,4.8,No
2024/03/08,15:00,4.8,4.7,No
2024/03/08,15:10,4.9,4.5,No
2024/03/08,15:20,4.8,4.7,No
2024/03/08,15:30,4.9,4.6,No
2024/03/08,15:40,5.0,4.7,No
2024/03/08,15:50,5.1,4.6,No
2024/03/08,16:00,4.8,4.6,No
2024/03/08,16:10,4.8,4.8,No
2024/03/08,16:20,4.8,4.5,No
2024/03/08,16:30,4.8,4.6,No
2024/03/08,16:40,4.8,4.5,No
2024/03/08,16:50,4.9,4.5,No
2024/03/08,17:00,4.9,4.7,No
2024/03/08,17:10,4.8,4.6,No
2024/03/08,17:20,4.9,4.6,No
2024/03/08,17:30,4.8,4.5,No
2024/03/08,17:40,4.9,4.7,No
2024/03/08,17:50,4.9,4.6,No
2024/03/08,18:00,4.9,4.5,No
2024/03/08,18:10,4.8,4.5,No
2024/03/08,18:20,4.7,4.6,No
2024/03/08,18:30,4.8,4.5,No
2024/03/08,18:40,4.8,4.6,No
2024/03/08,18:50,5.0,4.5,No
2024/03/08,19:00,4.8,4.6,No
2024/03/08,19:10,4.9,4.6,No
2024/03/08,19:20,4.9,4.7,No
2024/03/08,19:30,4.8,4.5,No
2024/03/08,19:40,4.9,4.6,No
2024/03/08,19:50,4.9,4.7,No
2024/03/08,20:00,4.8,4.6,No
2024/03/08,20:10,4.8,4.5,No
2024/03/08,20:20,5.0,4.7,No
2024/03/08,20:30,4.8,4.6,No
2024/03/08,20:40,5.0,4.6,No
2024/03/08,20:50,4.9,4.6,No
2024/03/08,21:00,5.0,4.6,No
2024/03/08,21:10,5.1,4.6,No
2024/03/08,21:20,5.0,4.6,No
2024/03/08,21:30,4.9,4.6,No
2024/03/08,21:40,5.1,4.6,No
2024/03/08,21:50,5.0,4.6,No
2024/03/08,22:00,5.0,4.7,No
2024/03/08,22:10,5.1,4.6,No
2024/03/08,22:20,4.9,4.6,No
2024/03/08,22:30,4.8,4.8,No
2024/03/08,22:40,4.9,4.8,No
2024/03/08,22:50,4.9,4.7,No
2024/03/08,23:00,4.9,4.6,No
2024/03/08,23:10,5.1,4.7,No
2024/03/08,23:20,4.8,4.6,No
2024/03/08,23:30,4.9,4.6,No
2024/03/08,23:40,5.0,4.6,No
2024/03/08,23:50,4.9,4.7,No
